STARLINK-31976, 59887

Orbit data source: Space-Track

STARLINK-31976, 59887 is a payload satellite owned by SpaceX/Seattle (US) in LEO that was launched on Tue, 28 May 2024 UTC via an FALCON 9 launch vehicle from the Air Force Eastern Test Range (AFETR). Payload-class satellites include a variety of spacecraft equipped with specific instruments for various scientific and technological missions. These include communications satellites like Starlink; space stations such as the ISS; scientific satellites like the Hubble; Earth observation satellites from companies like Planet Labs, Umbra, and HawkEye 360; GPS; miniature CubeSats for education and research; and military/defense satellites.

Loading next visibility...
Identifier
59887, 2024-100C
Orbit
LEO
Country
Flag of USUS
Related business
Manufacturer
SpaceX/Seattle
Mission
Operational Commercial Communications
Bus & Motor
STARLINK V2M, Unknown motor
Mass
730 kg wet, ~700 kg dry
Launch date (UTC)
2024-05-28 (2 years ago)
Launch vehicle
FALCON 9
Launch site
Air Force Eastern Test Range (AFETR)
Object type
Payload
Rocket body
Debris
Shape & HBR
Box + 2 Pan, 17.7 m
Radar Cross Section
33.884 m², Large (>1 m²)

Expand to show TLE details & history
Last TLE update: 13 hours ago

TLE from 13 hours ago
0 STARLINK-31976
1 59887U 24100C   26126.11571866  .00000489  00000-0  27275-4 0  9994
2 59887  43.0004 165.0173 0000801 275.2030  84.8730 15.27585988109896
Epoch: 2026-05-06T02:46Z
TLE epoch observation values (Epoch: 2026-05-06T02:46:38.092Z)
Latitude
-0.00002°
Longitude
-100.62228°
Altitude
482.758 km
Speed
7.626 km/s
True Right ascension
11h 00m 04s
True Declination
0° 00' 00"
Sunlit
Object was in full shadow at epoch
Visualization orbit readout
Latitude
Unknown
Longitude
Unknown
Altitude
Unknown
Speed
Unknown
Apparent Right ascension
Unknown
Apparent Declination
Unknown
Sunlit
N/A
Visualization observer readout
Local Sidereal Time
23:15:40
Azimuth
Unknown
Elevation
Unknown
Doppler factor
Unknown
Orbital elements
Apogee altitude
485.526 km
Perigee altitude
484.427 km
Semi-major axis
6,863.113 km
Eccentricity
0.00008
Inclination
43.0004°
RAAN
165.0173°
Arg. of periapsis
275.203°
True anomaly
84.88214°
Mean anomaly
84.873°
Eccentric anomaly
84.87757°
Mean motion
3.81735 °/min
Orbital period
94.31 mins
BSTAR
0.000027275
Loading maneuver chart data...
Computing Atmospheric mass density...
Loading historical data...
Loading historical data...
Loading historical data...
Loading historical data...
Loading historical data...
Loading historical data...
Loading historical data...

Documentation

Showing up to 5 results
|